Probability
0 0 0 0 0 0 0 0 0 0 0 0 0 0 0 0 0 0 0 0 0 0 2 5 7 7 5 3 2 2 4 6 6 7 7 7 5 5 4 3 2 1 0 0
0 0 0 0 0 0 0 0 0 0 0 0 0 0 0 0 0 0 0 0 0 1 3 7 8 7 4 1 1 1 3 5 6 7 8 7 6 4 3 3 1 0 0 0
0 0 0 0 0 0 0 0 0 0 0 0 0 0 0 0 0 1 1 0 1 2 4 6 6 4 2 0 0 0 1 3 4 5 6 6 5 3 2 2 1 0 0 0
0 0 0 0 0 0 0 0 1 1 1 1 1 1 1 0 1 2 1 0 1 2 2 2 2 1 0 0 0 0 0 1 2 2 3 3 3 1 1 1 0 0 0 0
0 0 0 0 0 0 0 1 2 2 2 2 2 2 2 0 1 1 1 0 0 1 1 0 0 0 0 0 0 0 0 0 0 0 1 1 1 0 0 0 0 0 0 0
0 0 0 0 0 0 1 2 2 2 3 3 3 2 1 0 0 0 0 0 0 0 0 0 0 0 0 0 0 0 0 0 0 0 0 0 0 0 0 0 0 0 0 0
0 0 0 0 0 0 0 1 1 2 4 4 3 1 0 0 0 0 0 0 0 0 0 0 0 0 0 0 0 0 0 0 0 0 0 0 0 0 0 0 0 0 0 0
0 0 0 0 0 0 0 0 0 1 3 3 2 0 0 0 0 0 0 0 0 0 0 0 0 0 0 0 0 0 0 0 0 0 0 0 0 0 0 0 0 0 0 0
0 0 0 0 0 1 1 0 0 1 2 2 1 0 0 0 0 0 0 0 0 0 0 0 0 0 0 0 0 0 0 0 0 0 0 0 0 0 0 0 0 0 0 0
0 0 1 0 0 1 1 0 0 0 1 1 0 0 0 0 0 0 0 0 0 0 0 0 0 0 0 0 0 0 0 0 0 0 0 0 0 0 0 0 0 0 0 0
0 0 0 0 0 1 1 0 0 0 0 0 0 0 0 0 0 0 0 0 0 0 0 0 0 0 0 0 0 0 0 0 0 0 0 0 0 0 0 0 0 0 0 0
0 0 0 0 0 0 0 0 0 1 0 0 0 0 0 0 0 0 0 0 0 0 0 1 0 0 0 0 0 0 0 0 0 0 0 0 0 0 0 0 0 0 0 0
0 0 0 1 1 0 0 0 0 0 0 0 0 0 0 0 0 0 0 0 0 0 0 0 0 0 0 0 0 0 0 0 0 0 0 0 0 0 0 0 0 0 0 0
0 0 0 1 1 0 0 0 0 0 0 0 0 0 0 0 0 0 0 0 0 0 0 0 0 0 0 0 0 0 0 0 0 0 0 0 0 0 0 0 0 0 0 0
0 0 0 1 1 0 0 0 0 0 0 0 0 0 0 0 0 0 0 0 0 0 0 0 0 0 0 0 0 0 0 0 0 0 0 0 0 0 0 0 0 0 0 0
0 0 0 0 0 0 0 0 0 0 0 0 0 0 0 0 0 0 0 0 0 0 0 0 0 0 0 0 0 0 0 0 0 0 0 0 0 0 0 0 0 0 0 0
0 0 0 0 0 0 0 0 0 0 0 0 0 0 0 0 0 0 0 0 0 0 0 0 0 0 0 0 0 0 0 0 0 0 0 0 0 0 0 0 0 0 0 0
0 0 0 0 0 0 0 0 0 0 0 0 0 0 0 0 0 0 0 0 0 0 0 0 0 0 0 0 0 0 0 0 0 0 0 0 0 0 0 0 0 0 0 0
0 0 0 0 0 0 0 0 0 0 0 0 0 0 0 0 0 0 0 0 0 0 0 0 0 0 0 0 0 0 0 0 0 0 0 0 0 0 0 0 0 0 0 0
0 0 0 0 0 0 0 0 0 0 0 0 0 0 0 0 0 0 0 0 0 0 0 0 0 0 0 0 0 0 0 0 0 0 0 0 0 0 0 0 0 0 0 0
0 0 0 0 0 0 0 0 0 0 0 0 0 0 0 0 0 0 0 0 0 0 0 0 0 0 0 0 0 0 0 0 0 0 0 0 0 0 0 0 0 0 0 0
0 0 0 0 0 0 0 0 0 0 0 0 0 0 0 0 0 0 0 0 0 0 0 0 0 0 0 0 0 0 0 0 0 0 0 0 0 0 0 0 0 0 0 0
0 0 0 0 0 0 0 0 0 0 0 0 0 0 0 0 0 0 0 0 0 0 0 0 0 0 0 0 0 0 0 0 0 0 0 0 0 0 0 0 0 0 0 0
0 0 0 0 0 0 0 0 0 0 0 0 0 0 0 0 0 0 0 0 0 0 0 0 0 0 0 0 0 0 0 0 0 0 0 0 0 0 0 0 0 0 0 0
0 0 0 0 0 0 0 0 0 0 0 0 0 0 0 0 0 0 0 0 0 0 0 0 0 0 0 0 0 0 0 0 0 0 0 0 0 0 0 0 0 0 0 0
0 0 0 0 0 0 0 0 0 0 0 0 0 0 0 0 0 0 0 0 0 0 0 0 0 0 0 0 0 0 0 0 0 0 0 0 0 0 0 0 0 0 0 0
0 0 0 0 0 0 0 0 0 0 0 0 0 0 0 0 0 0 0 0 0 0 0 0 0 0 0 0 0 0 0 0 0 0 0 0 0 0 0 0 0 0 0 0
Wind_Speed
5 5 4 5 6 4 5 8 8 9 9 11 12 12 11 10 11 12 12 12 13 13 11 10 9 9 9 8 8 8 7 7 8 7 7 6 6 6 6 5 6 6 5 5
2 3 3 4 6 6 5 4 5 4 7 7 7 5 6 8 11 12 13 14 14 13 12 12 11 10 9 8 8 8 8 8 7 6 6 6 6 6 5 5 5 5 5 5
3 4 3 4 5 3 2 3 2 5 7 2 3 6 8 8 10 11 11 11 12 13 13 12 12 11 11 10 8 7 7 7 6 6 6 6 6 5 6 5 5 5 6 6
1 2 4 8 4 1 2 5 4 1 1 3 5 7 6 7 9 10 10 11 11 11 10 10 9 9 9 8 8 8 7 6 6 6 6 6 5 5 5 4 5 5 6 6
3 3 6 5 3 1 3 3 7 6 5 4 3 5 2 2 6 9 11 10 10 11 10 9 9 9 9 8 7 7 7 6 6 6 6 5 6 6 5 4 5 5 5 6
3 3 5 5 5 3 4 2 5 6 5 5 5 3 3 3 3 5 5 6 7 7 6 8 9 9 9 8 8 8 8 7 7 6 6 6 6 6 4 4 6 6 6 7
3 3 6 4 6 3 3 4 2 2 3 4 2 3 4 1 2 3 4 4 6 7 7 8 8 8 8 7 9 8 6 6 5 6 6 6 5 4 4 5 5 6 7 7
3 2 6 4 3 1 4 2 1 2 3 4 3 4 2 2 2 2 3 3 4 5 5 4 6 8 7 8 7 5 5 5 5 5 5 4 4 4 4 5 5 6 6 7
5 5 3 2 1 2 3 3 2 2 1 2 2 1 2 3 2 2 2 2 3 4 3 2 2 5 6 5 4 4 4 4 4 4 4 4 4 5 4 4 4 5 5 6
1 2 2 1 0 1 2 2 2 3 3 5 5 4 4 4 4 5 4 3 3 4 3 2 1 2 3 2 3 4 3 3 3 3 4 4 4 4 4 5 5 5 6 6
2 2 1 2 2 2 2 4 6 7 7 6 6 5 5 4 4 4 4 4 4 4 3 2 2 2 2 2 3 2 1 2 3 3 4 4 5 5 6 7 7 7 7 6
7 8 6 5 2 3 6 6 6 9 9 8 7 6 5 5 4 4 5 5 5 4 4 3 3 3 3 2 2 1 1 3 3 3 4 4 5 6 9 11 13 14 14 11
6 6 5 4 4 5 7 8 8 9 8 8 7 7 6 5 5 5 6 5 4 4 4 4 4 3 3 3 2 1 2 3 3 3 4 4 4 5 7 8 10 12 14 14
9 9 7 5 6 7 9 9 9 9 8 7 7 7 7 6 6 6 5 4 4 4 4 4 4 3 3 3 2 2 3 4 4 4 4 5 5 6 6 6 7 6 8 12
7 8 7 6 8 8 8 8 9 8 7 7 6 7 7 6 6 5 4 4 5 5 4 3 3 3 3 3 3 3 3 3 4 4 5 5 5 5 6 7 6 6 6 7
8 9 10 10 9 8 9 9 9 6 6 5 5 5 5 5 4 4 4 5 5 4 2 2 2 3 3 3 3 3 3 7 6 4 5 5 5 5 5 6 6 6 6 6
10 8 9 8 8 7 7 7 7 6 5 5 3 3 4 4 4 3 3 3 2 1 1 1 2 3 2 2 2 2 4 5 9 6 5 5 5 6 6 6 6 6 6 7
8 7 7 7 7 7 6 6 6 5 4 3 3 3 3 2 1 1 1 1 2 3 2 3 3 2 2 2 2 3 4 4 5 5 6 6 6 6 6 6 7 7 6 7
8 7 7 7 6 6 5 4 4 3 3 2 2 1 1 2 2 3 2 1 2 3 5 5 4 2 3 4 4 3 4 5 5 5 5 7 7 5 6 6 6 6 6 7
6 6 7 7 6 5 4 3 3 2 2 1 1 1 2 3 3 3 2 3 4 5 5 5 3 3 4 5 5 3 4 5 5 6 5 5 5 6 6 6 6 6 6 6
7 7 7 6 5 4 3 2 2 3 3 3 2 3 4 4 4 3 2 4 6 6 5 5 3 3 3 4 5 4 4 5 5 5 5 5 5 6 6 6 6 6 5 5
5 5 5 4 4 3 3 3 3 4 4 4 4 4 4 5 5 4 4 5 6 6 4 3 3 4 5 5 3 4 4 5 4 4 5 5 6 6 6 6 6 6 5 5
3 2 2 2 2 3 4 5 5 5 5 6 6 6 6 5 4 3 4 5 4 6 4 3 4 6 6 4 3 3 4 4 4 5 5 5 6 6 6 7 6 5 5 5
2 2 3 4 3 4 6 7 7 5 5 6 5 5 4 3 3 4 4 5 5 4 2 3 5 6 5 2 3 3 3 3 4 4 5 5 5 5 5 6 5 5 5 6
4 4 4 4 4 4 6 6 5 5 5 4 5 4 2 2 3 3 3 3 4 2 2 3 4 4 3 2 3 3 3 3 3 4 5 5 5 5 6 6 6 5 4 4
3 3 3 3 3 3 3 2 3 3 3 3 3 3 3 3 3 2 2 2 2 2 2 2 2 2 2 2 3 3 3 3 4 4 5 5 5 6 6 6 8 5 4 4
4 3 3 3 3 3 2 2 2 3 2 2 3 4 4 4 3 3 2 1 1 1 1 1 2 2 2 2 3 3 3 3 3 4 5 5 5 5 6 7 5 5 4 4
Wind_Direction
218 215 196 232 256 246 211 193 192 224 215 219 210 204 203 191 177 171 173 176 177 178 178 177 176 179 177 179 179 172 171 183 199 203 202 204 210 216 219 220 224 226 231 240
291 245 250 277 291 285 271 246 228 218 234 235 203 175 176 173 165 169 177 181 180 177 173 174 175 176 174 178 181 173 179 193 198 196 200 206 213 217 220 226 231 228 231 238
286 308 357 289 260 242 292 329 187 205 231 212 150 167 175 166 159 167 177 177 176 178 179 179 179 175 178 181 177 176 185 192 195 195 202 212 215 214 220 225 226 230 237 239
189 21 248 244 256 195 81 24 7 30 65 142 169 177 170 163 166 168 173 174 177 180 183 185 179 176 177 171 170 178 186 193 196 197 208 214 213 219 225 223 225 233 239 241
142 194 264 280 308 357 97 28 11 28 33 32 52 70 38 178 164 174 175 178 181 183 181 178 178 176 168 171 175 182 193 199 199 198 204 208 216 227 228 226 235 237 239 241
140 168 234 260 294 293 102 63 351 24 23 24 50 82 270 274 174 169 172 169 168 166 167 176 183 170 167 178 181 196 202 202 200 195 198 207 218 226 228 226 238 243 248 245
164 198 253 275 308 350 132 219 291 13 20 56 77 216 250 307 104 137 140 152 156 155 169 186 178 165 174 182 199 207 199 194 196 199 205 212 219 225 231 237 247 249 254 257
148 186 253 306 5 138 192 178 201 58 54 58 30 325 336 70 90 107 108 121 139 152 173 177 163 165 178 198 207 189 180 188 200 207 215 216 219 235 237 237 248 257 260 269
172 204 251 301 192 205 162 156 173 144 121 95 96 344 8 40 39 51 69 100 127 143 147 135 150 164 185 210 183 169 177 198 213 217 224 224 222 237 245 241 243 255 254 261
129 261 272 300 251 205 178 160 124 93 84 89 97 82 60 50 47 45 43 50 65 89 100 99 123 149 181 181 154 155 183 213 220 225 243 248 243 240 241 243 245 249 250 255
161 197 123 301 245 190 124 81 75 76 80 87 91 76 71 66 55 56 55 55 70 78 83 80 73 66 66 100 119 139 199 245 255 252 255 259 257 248 244 242 237 236 241 239
196 191 163 202 210 149 117 103 93 88 77 71 83 83 74 64 54 53 54 53 55 59 56 49 61 53 33 42 106 141 233 255 254 255 259 259 265 279 265 256 262 255 248 244
152 144 137 147 128 115 101 94 89 89 91 84 73 76 77 66 51 49 49 52 54 53 54 54 60 48 14 9 35 7 277 276 274 272 271 271 267 267 281 287 277 271 264 256
110 106 94 104 111 105 102 98 92 85 81 82 77 72 72 65 55 50 44 42 48 51 53 55 54 23 352 2 16 345 316 295 288 277 276 275 272 268 265 270 282 285 276 264
92 105 117 106 96 95 97 94 88 81 76 70 71 74 72 67 58 45 38 47 54 51 44 49 44 354 341 8 8 337 319 303 294 285 281 278 276 273 271 268 266 271 280 281
91 89 92 86 86 88 87 87 87 81 76 72 69 72 73 77 68 47 33 39 51 40 18 36 2 318 332 356 349 328 310 307 308 296 289 289 284 280 278 274 272 270 268 267
90 84 86 84 79 79 82 87 88 83 74 72 74 80 75 70 55 36 18 22 48 26 336 318 302 307 335 351 341 310 303 305 310 309 296 289 286 284 281 277 275 273 268 265
97 102 105 104 99 87 76 76 76 73 72 69 71 73 83 95 121 260 283 321 357 341 302 272 271 289 320 320 303 292 293 293 296 294 293 293 292 287 286 282 279 277 276 278
94 98 95 93 94 90 84 78 71 63 49 46 41 26 226 225 228 239 250 268 290 291 276 269 270 273 289 286 292 287 293 296 296 292 291 296 297 293 291 286 284 283 282 280
77 76 76 73 70 74 76 72 63 34 356 354 348 321 291 270 258 253 250 251 245 239 248 257 264 272 278 282 297 290 292 294 295 295 297 296 297 299 297 293 290 287 286 285
63 66 66 62 53 48 45 35 15 332 310 307 280 264 259 259 259 252 242 263 267 258 254 256 256 264 268 279 294 289 290 292 295 296 299 299 300 304 302 298 295 291 291 293
53 55 50 42 30 2 337 328 311 299 296 287 275 263 257 262 266 266 252 242 252 257 250 250 253 260 277 290 284 288 289 293 295 297 300 301 302 301 299 297 294 295 294 293
36 28 7 339 312 293 301 301 293 287 279 272 265 262 257 253 247 241 266 262 254 253 245 245 252 272 290 294 289 291 295 297 300 304 306 306 304 302 302 301 298 298 298 299
321 309 296 290 296 302 297 291 291 285 277 273 269 267 260 265 279 258 244 258 264 270 245 243 274 292 294 288 290 293 294 298 306 309 308 308 307 309 308 308 307 306 307 310
295 292 290 295 294 283 279 287 299 303 306 304 304 301 281 238 242 264 269 265 272 263 240 268 291 301 300 290 289 295 298 304 309 309 308 311 314 314 311 313 312 309 314 317
307 302 295 290 286 290 303 320 324 322 327 327 319 314 311 305 294 289 287 280 280 281 272 280 291 301 304 305 304 306 311 315 318 318 315 316 317 319 320 321 320 320 324 331
350 349 348 348 341 338 337 338 330 318 311 303 298 297 301 304 307 312 317 312 309 306 304 313 324 333 340 341 333 330 330 333 333 327 324 325 323 323 325 328 331 336 342 346